#timestamp,LO_Frequency,Hit,StdDev 
1608490815.8,286047001.1,N
1608490835.6,286047000.5,N
1608490855.4,286047000.4,N
1608490875.3,286047002.1,N
1608490895.1,286047000.2,N
1608490896.0,286047000.2,N
1608490915.8,286047001.7,N
1608490935.7,286047003.6,N
1608490955.5,286047003.6,N
1608490975.3,286047004.0,N
1608490995.2,286047006.0,Y
1608491015.9,286047004.1,P
1608491035.7,286047003.6,N
1608491055.6,286047005.9,P
1608491075.4,286047005.9,Y
1608491095.2,286047002.2,P
1608491115.1,286047001.6,N
1608491116.0,286047001.6,N
1608491135.8,286047003.3,Y
1608491155.6,286047002.6,P
1608491175.5,286047002.6,P
1608491225.3,286047004.4,E
1608491235.3,286047002.6,N
1608491255.1,286046998.6,P
1608491256.0,286046998.6,N
1608491275.8,286046996.5,N
1608491295.7,286046996.7,N
1608491315.5,286046997.0,N
1608491335.3,286046999.2,N
1608491355.2,286046999.6,N
1608491375.9,286047000.9,N
1608491395.7,286046998.3,N
1608491415.6,286046999.4,N
1608491435.4,286047000.8,N
1608491455.2,286047000.2,N
1608491475.1,286047001.2,N
1608491476.0,286047001.2,N
1608491495.8,286047000.7,N
1608491515.6,286047002.8,N
1608491535.5,286047000.2,N
1608491555.3,286047002.8,N
1608491575.1,286047002.2,N
1608491595.9,286047001.9,N
1608491615.7,286047001.7,N
1608491635.5,286047001.8,N
1608491655.4,286047001.6,N
1608491675.2,286047003.9,N
1608491695.0,286047002.0,N
1608491695.9,286047002.0,N
1608491715.8,286047003.9,N
1608491735.6,286047003.5,N
1608491755.4,286047003.5,N
1608491775.3,286047002.9,N
1608491795.1,286047003.1,N
1608491796.0,286047003.1,N
1608491815.8,286047003.1,N
1608491835.7,286047003.1,N
1608491855.5,286047003.2,N
1608491875.3,286047005.7,Y
1608491895.2,286047001.4,P
1608491915.9,286047003.3,P
1608491935.7,286047006.0,P
1608491955.6,286047007.5,Y
1608491975.4,286047002.0,P
1608491995.2,286047001.8,P
1608492015.1,286047003.9,P
1608492016.0,286047003.9,Y
1608492035.8,286047001.1,P
1608492055.6,286047001.1,N
1608492075.5,286046998.7,N
1608492095.3,286047001.2,N
1608492115.1,286047002.8,N
1608492135.9,286047002.3,N
1608492155.7,286047000.2,N
1608492205.6,286047002.7,E
1608492215.5,286047000.9,N
1608492235.3,286046998.9,P
1608492255.1,286046998.4,N
1608492275.9,286046999.3,N
1608492295.7,286046999.3,N
1608492315.5,286047000.8,N
1608492335.4,286047000.0,N
1608492355.2,286046999.0,N
1608492375.0,286046996.5,Y
1608492376.0,286046996.5,P
1608492395.8,286047001.1,N
1608492415.6,286046998.3,N
1608492435.4,286046998.2,N
1608492455.3,286046998.7,N
1608492475.1,286046996.9,N
1608492495.8,286046996.6,N
1608492515.7,286046996.5,N
1608492535.5,286046996.7,N
1608492555.3,286046999.5,N
1608492575.2,286046998.7,N
1608492595.0,286046997.2,N
1608492595.9,286046997.2,N
1608492615.7,286046997.0,N
1608492635.6,286046997.5,N
1608492655.4,286046998.3,N
1608492675.2,286046996.9,N
1608492695.1,286046997.5,N
1608492696.0,286046997.5,N
1608492715.8,286046995.7,Y
1608492735.7,286046996.9,P
1608492755.5,286046998.8,N
1608492775.3,286046996.9,P
1608492825.2,286046999.1,E
1608492835.1,286046998.3,N
1608492836.0,286046998.3,P
1608492855.8,286046998.4,P
1608492875.7,286046998.2,Y
1608492895.5,286047002.4,P
1608492915.3,286047000.5,N
1608492935.2,286046998.2,N
1608492955.9,286046998.7,N
1608492975.7,286047000.7,N
1608492995.6,286047000.2,N
1608493015.4,286047000.8,N
1608493035.2,286046998.7,N
1608493055.1,286046998.4,N
1608493056.0,286046998.4,N
1608493075.8,286046998.2,N
1608493095.6,286046999.0,N
1608493115.5,286046996.9,N
1608493135.3,286046997.7,N
1608493155.1,286046997.8,N
1608493175.9,286046996.6,N
1608493195.7,286046997.0,N
1608493215.5,286046996.5,N
1608493235.4,286046997.2,N
1608493255.2,286046997.5,N
1608493275.0,286046996.6,N
1608493275.9,286046996.6,N
1608493295.8,286046997.0,N
1608493315.6,286046997.1,N
1608493335.4,286046996.8,N
1608493355.3,286046995.5,N
1608493375.1,286046995.3,N
1608493376.0,286046995.3,N
1608493395.8,286046995.2,N
1608493415.7,286046994.9,N
1608493435.5,286046995.1,N
1608493455.3,286046993.7,Y
1608493475.2,286046997.9,P
1608493495.9,286046995.0,P
1608493515.7,286046998.0,N
1608493535.6,286046998.0,N
1608493555.4,286046996.1,Y
1608493575.2,286046996.7,P
1608493595.1,286046996.7,P
1608493596.0,286046996.7,P
1608493615.8,286046999.1,Y
1608493635.6,286047000.3,P
1608493655.5,286047000.4,N
1608493675.3,286047000.1,N
1608493695.1,286047000.1,N
1608493715.9,286046999.9,N
1608493735.7,286047000.6,N
1608493755.5,286047001.1,N
1608493775.4,286046998.5,N
1608493795.2,286046998.6,N
1608493815.0,286046998.7,N
1608493815.9,286046998.7,N
1608493835.8,286046999.3,N
1608493855.6,286046996.5,Y
1608493875.4,286046999.5,P
1608493895.3,286046997.1,P
1608493915.1,286046997.4,N
1608493935.8,286046997.9,N
1608493955.7,286046997.2,N
1608493975.5,286046997.4,N
1608493995.3,286046997.9,N
1608494015.2,286046997.2,Y
1608494035.9,286046997.2,P
1608494055.7,286046999.6,N
1608494075.6,286046996.9,P
1608494095.4,286046997.6,N
1608494115.2,286046995.2,Y
1608494135.1,286046999.4,P
1608494136.0,286046999.4,N
1608494155.8,286046998.7,N
1608494175.6,286046998.6,N
1608494195.5,286047000.8,N
1608494215.3,286046998.8,N
1608494235.1,286046998.5,N
1608494255.9,286046999.5,N
1608494275.7,286046999.6,N
1608494295.5,286046996.9,Y
1608494315.4,286046999.5,P
1608494335.2,286046996.7,P
1608494355.0,286046997.0,N
1608494355.9,286046997.0,N
1608494375.8,286046999.5,N
1608494395.6,286046997.3,N
